TimeEST,TemperatureF,Dew PointF,Humidity,Sea Level PressureIn,VisibilityMPH,Wind Direction,Wind SpeedMPH,Gust SpeedMPH,PrecipitationIn,Events,Conditions,WindDirDegrees,DateUTC
12:16 AM,32.0,28.4,87,30.16,7.0,South,4.6,-,N/A,,Clear,170,2013-01-09 05:16:00
12:36 AM,32.0,28.4,87,30.16,7.0,South,4.6,-,N/A,,Clear,180,2013-01-09 05:36:00
12:51 AM,30.2,28.4,93,30.15,7.0,South,4.6,-,N/A,,Clear,170,2013-01-09 05:51:00
1:11 AM,30.2,28.4,93,30.15,7.0,South,3.5,-,N/A,,Clear,170,2013-01-09 06:11:00
1:31 AM,32.0,28.4,87,30.13,7.0,SSE,3.5,-,N/A,,Clear,160,2013-01-09 06:31:00
1:51 AM,32.0,28.4,87,30.12,7.0,South,4.6,-,N/A,,Clear,170,2013-01-09 06:51:00
2:11 AM,32.0,28.4,87,30.11,7.0,SSE,3.5,-,N/A,,Clear,160,2013-01-09 07:11:00
2:31 AM,30.2,28.4,93,30.11,7.0,South,3.5,-,N/A,,Clear,170,2013-01-09 07:31:00
2:51 AM,30.2,28.4,93,30.11,7.0,South,3.5,-,N/A,,Clear,170,2013-01-09 07:51:00
3:11 AM,30.2,28.4,93,30.11,7.0,Calm,Calm,-,N/A,,Clear,0,2013-01-09 08:11:00
3:32 AM,32.0,28.4,87,30.11,7.0,Calm,Calm,-,N/A,,Mostly Cloudy,0,2013-01-09 08:32:00
3:52 AM,33.8,30.2,87,30.10,10.0,South,8.1,-,N/A,,Overcast,190,2013-01-09 08:52:00
4:12 AM,35.6,30.2,81,30.09,10.0,South,8.1,-,N/A,,Overcast,190,2013-01-09 09:12:00
4:32 AM,37.4,32.0,81,30.08,10.0,South,9.2,-,N/A,,Overcast,190,2013-01-09 09:32:00
4:52 AM,37.4,32.0,81,30.07,10.0,SSW,9.2,-,N/A,,Overcast,200,2013-01-09 09:52:00
5:12 AM,37.4,32.0,81,30.07,10.0,SSW,6.9,-,N/A,,Overcast,200,2013-01-09 10:12:00
5:32 AM,39.2,33.8,81,30.06,10.0,SSW,9.2,-,N/A,,Overcast,200,2013-01-09 10:32:00
5:52 AM,41.0,33.8,76,30.06,10.0,SSW,12.7,20.7,N/A,Rain,Rain,210,2013-01-09 10:52:00
6:12 AM,42.8,33.8,70,30.07,10.0,SW,12.7,19.6,N/A,,Overcast,220,2013-01-09 11:12:00
6:33 AM,42.8,33.8,70,30.07,10.0,SW,10.4,16.1,N/A,Rain,Light Rain,220,2013-01-09 11:33:00
7:13 AM,42.8,33.8,70,30.05,10.0,SW,15.0,19.6,N/A,,Overcast,230,2013-01-09 12:13:00
7:33 AM,42.8,33.8,70,30.07,10.0,SW,16.1,-,N/A,,Scattered Clouds,220,2013-01-09 12:33:00
7:53 AM,42.8,35.6,76,30.07,10.0,SW,16.1,-,N/A,,Clear,220,2013-01-09 12:53:00
8:13 AM,42.8,33.8,70,30.07,10.0,SW,13.8,-,N/A,,Clear,230,2013-01-09 13:13:00
8:33 AM,42.8,33.8,70,30.08,10.0,SW,17.3,25.3,N/A,,Clear,230,2013-01-09 13:33:00
8:53 AM,41.0,33.8,76,30.09,10.0,SW,17.3,25.3,N/A,,Clear,230,2013-01-09 13:53:00
9:13 AM,41.0,33.8,76,30.10,10.0,WSW,16.1,25.3,N/A,,Clear,240,2013-01-09 14:13:00
9:33 AM,41.0,35.6,81,30.10,10.0,WSW,17.3,21.9,N/A,,Clear,240,2013-01-09 14:33:00
10:14 AM,42.8,35.6,76,30.13,10.0,WSW,18.4,27.6,N/A,,Clear,250,2013-01-09 15:14:00
10:34 AM,42.8,35.6,76,30.13,10.0,WSW,18.4,24.2,N/A,,Clear,240,2013-01-09 15:34:00
10:54 AM,42.8,35.6,76,30.13,10.0,WSW,16.1,25.3,N/A,,Clear,240,2013-01-09 15:54:00
11:14 AM,42.8,35.6,76,30.14,10.0,WSW,16.1,24.2,N/A,,Clear,250,2013-01-09 16:14:00
11:34 AM,44.6,35.6,71,30.14,10.0,WSW,18.4,24.2,N/A,,Clear,250,2013-01-09 16:34:00
11:54 AM,44.6,35.6,71,30.14,10.0,WSW,18.4,26.5,N/A,,Clear,240,2013-01-09 16:54:00
12:14 PM,44.6,35.6,71,30.14,10.0,WSW,18.4,-,N/A,,Clear,240,2013-01-09 17:14:00
12:34 PM,44.6,35.6,71,30.13,10.0,WSW,16.1,25.3,N/A,,Clear,250,2013-01-09 17:34:00
12:55 PM,44.6,33.8,66,30.13,10.0,WSW,17.3,21.9,N/A,,Clear,250,2013-01-09 17:55:00
1:15 PM,44.6,33.8,66,30.13,10.0,WSW,15.0,25.3,N/A,,Clear,240,2013-01-09 18:15:00
1:35 PM,44.6,35.6,71,30.13,10.0,WSW,17.3,24.2,N/A,,Clear,240,2013-01-09 18:35:00
1:55 PM,44.6,33.8,66,30.14,10.0,WSW,16.1,25.3,N/A,,Clear,240,2013-01-09 18:55:00
2:15 PM,46.4,35.6,66,30.14,10.0,WSW,15.0,-,N/A,,Clear,240,2013-01-09 19:15:00
2:35 PM,46.4,33.8,62,30.15,10.0,WSW,18.4,21.9,N/A,,Clear,250,2013-01-09 19:35:00
2:55 PM,46.4,33.8,62,30.17,10.0,WSW,18.4,23.0,N/A,,Clear,250,2013-01-09 19:55:00
3:15 PM,46.4,33.8,62,30.17,10.0,WSW,19.6,25.3,N/A,,Clear,250,2013-01-09 20:15:00
3:35 PM,46.4,32.0,57,30.18,10.0,WSW,16.1,24.2,N/A,,Clear,250,2013-01-09 20:35:00
3:56 PM,46.4,30.2,53,30.19,10.0,WSW,13.8,23.0,N/A,,Clear,250,2013-01-09 20:56:00
4:16 PM,46.4,30.2,53,30.20,10.0,WSW,15.0,21.9,N/A,,Clear,250,2013-01-09 21:16:00
4:31 PM,44.6,30.2,57,30.21,10.0,WSW,15.0,19.6,N/A,,Clear,250,2013-01-09 21:31:00
4:51 PM,44.6,28.4,53,30.22,10.0,WSW,16.1,-,N/A,,Clear,250,2013-01-09 21:51:00
5:11 PM,44.6,28.4,53,30.22,10.0,WSW,12.7,-,N/A,,Clear,250,2013-01-09 22:11:00
5:31 PM,42.8,28.4,57,30.23,10.0,WSW,12.7,-,N/A,,Clear,250,2013-01-09 22:31:00
5:51 PM,42.8,28.4,57,30.25,10.0,WSW,11.5,-,N/A,,Clear,250,2013-01-09 22:51:00
6:11 PM,42.8,26.6,53,30.27,10.0,West,16.1,20.7,N/A,,Clear,260,2013-01-09 23:11:00
6:31 PM,42.8,24.8,49,30.28,10.0,West,15.0,19.6,N/A,,Clear,260,2013-01-09 23:31:00
7:12 PM,42.8,26.6,53,30.31,10.0,West,13.8,18.4,N/A,,Clear,270,2013-01-10 00:12:00
7:32 PM,41.0,26.6,57,30.32,10.0,WNW,11.5,-,N/A,,Clear,290,2013-01-10 00:32:00
7:52 PM,39.2,26.6,61,30.32,10.0,WNW,9.2,16.1,N/A,,Clear,290,2013-01-10 00:52:00
8:12 PM,39.2,26.6,61,30.34,10.0,West,9.2,-,N/A,,Clear,280,2013-01-10 01:12:00
8:32 PM,39.2,26.6,61,30.35,10.0,WNW,10.4,-,N/A,,Clear,290,2013-01-10 01:32:00
9:12 PM,37.4,26.6,65,30.37,10.0,West,8.1,-,N/A,,Clear,280,2013-01-10 02:12:00
9:32 PM,37.4,26.6,65,30.39,10.0,West,5.8,-,N/A,,Clear,280,2013-01-10 02:32:00
9:52 PM,35.6,26.6,70,30.39,10.0,West,6.9,-,N/A,,Clear,280,2013-01-10 02:52:00
10:13 PM,37.4,26.6,65,30.40,10.0,WNW,3.5,-,N/A,,Clear,290,2013-01-10 03:13:00
10:33 PM,35.6,26.6,70,30.41,10.0,West,5.8,-,N/A,,Clear,280,2013-01-10 03:33:00
10:53 PM,35.6,26.6,70,30.41,10.0,Calm,Calm,-,N/A,,Clear,0,2013-01-10 03:53:00
11:13 PM,33.8,26.6,75,30.43,10.0,Calm,Calm,-,N/A,,Clear,0,2013-01-10 04:13:00
11:33 PM,32.0,26.6,80,30.44,10.0,Calm,Calm,-,N/A,,Clear,0,2013-01-10 04:33:00
11:53 PM,28.4,24.8,86,30.45,10.0,South,3.5,-,N/A,,Clear,190,2013-01-10 04:53:00